www.pogodaiklimat.ru

Погода и климат >> Архив погоды >> Узбекистан >> Ширабад


ПОГОДА в Ширабаде

  • Прогноз погоды в Ширабаде
  • Монитор погоды в Ширабаде

АРХИВ ПОГОДЫ в Ширабаде

Время (UTC), дата Ветер
(напр.,м/с)
 
Видим.   Явления Облачность Т
(С)
Тd
(С)
f
(%)
Тe
(С)
Тes
(С)
Комфортность P
(гПа)
Po
(гПа)
Тmin
(С)
Tmax
(С)
R
(мм)
R24
(мм)
S
(см)
03 11.09 С 3 10 км ясно +19.1 +5.5 41 +20 +22 1015.6 968.4
06 11.09 ЮВ 2 4000 м ясно +24.1 +8.1 36 +25 +37 комфорт 1013.3 967.0
09 11.09 ЮВ 2 4000 м ясно +29.4 +11.2 32 +30 +43 жарко 1010.8 965.5
12 11.09 Ю 3 4000 м ясно +29.0 +10.0 31 +29 +31 жарко 1013.9 968.2
15 11.09 З 1 н/о ясно +22.9 +11.8 50 +25 +25 комфорт 1015.4 968.8 +29.7
21 11.09 СЗ 2 н/о ясно +18.5 +10.5 60 +19 +19 1014.6 967.5
03 12.09 СВ 1 10 км ясно +18.1 +6.7 47 +19 +22 1016.3 968.9
06 12.09 СВ 2 10 км ясно +24.3 +10.9 43 +26 +38 жарко 1015.8 969.5
09 12.09 ЮВ 3 10 км ясно +29.2 +10.9 32 +30 +40 жарко 1015.5 969.9
12 12.09 Ю 1 10 км ясно +30.6 +13.4 35 +32 +35 жарко 1015.9 970.5
15 12.09 С 2 н/о ясно +21.9 +12.6 56 +24 +24 комфорт 1017.2 970.5 +30.9
18 12.09 С 2 н/о ясно +19.4 +15.8 80 +22 +22 комфорт 1016.3 970.0
21 12.09 СЗ 4 н/о ясно +18.7 +6.7 46 +19 +19 1018.7 971.4
00 13.09 З 3 н/о ясно +16.7 +9.2 61 +17 +17 1016.8 969.2
03 13.09 С 2 10 км ясно +20.5 +5.9 39 +22 +24 комфорт 1014.3 967.5
06 13.09 В 2 4000 м ясно +27.2 +10.0 34 +28 +40 жарко 1013.9 968.1
09 13.09 Ю 1 4000 м ясно +30.6 +8.8 26 +30 +45 жарко 1013.8 968.4
12 13.09 Ю 2 4000 м ясно +30.8 +9.3 26 +30 +33 жарко 1010.9 965.7
15 13.09 Ю 1 н/о ясно +23.3 +14.8 59 +27 +27 душно 1011.7 965.5 +31.1
18 13.09 СВ 2 н/о ясно +22.3 +10.0 46 +24 +24 комфорт 1011.9 965.5
21 13.09 В 2 н/о ясно +20.3 +9.2 49 +22 +22 комфорт 1012.7 965.9
00 14.09 В 2 н/о ясно +17.3 +11.0 66 +18 +18 1013.8 966.5
03 14.09 С 2 10 км ясно +20.7 +9.3 48 +23 +25 комфорт 1013.8 967.0
06 14.09 В 2 10 км 5/0
[Cs]
+28.0 +9.5 31 +28 +39 жарко 1013.3 967.6
09 14.09 ЮЗ 2 10 км 6/0
[Cs]
+31.4 +12.3 31 +32 +43 жарко 1012.0 966.9
12 14.09 Ю 4 10 км 6/0
[Ci fib]
+31.0 +13.1 34 +32 +34 жарко 1010.4 965.9
15 14.09 ЮЗ 1 н/о ясно +26.2 +7.4 30 +26 +26 жарко 1011.5 965.6 +31.7
18 14.09 В 1 н/о ясно +21.7 +7.7 40 +23 +23 комфорт 1011.7 965.1
21 14.09 Ю 1 н/о ясно +18.7 +8.0 50 +20 +20 1013.0 965.9
00 15.09 С 2 н/о ясно +17.2 +7.3 52 +18 +18 1014.1 966.6
03 15.09 СВ 1 10 км ясно +19.3 +7.3 46 +21 +24 комфорт 1015.3 968.1
06 15.09 Ю 2 10 км ясно +25.2 +6.4 30 +25 +37 комфорт 1016.7 970.3
09 15.09 ЮВ 2 10 км ясно +29.0 +8.5 28 +29 +41 жарко 1016.0 970.3
12 15.09 В 2 10 км ясно +30.2 +7.7 24 +29 +31 жарко 1011.1 968.5
15 15.09 СВ 3 н/о ясно +23.5 +11.7 47 +25 +25 комфорт 1015.3 968.9 +30.5
18 15.09 С 2 н/о ясно +20.3 +11.0 55 +23 +23 комфорт 1015.8 968.9
21 15.09 С 3 н/о ясно +18.3 +8.9 54 +19 +19 1015.7 968.5
00 16.09 С 2 н/о ясно +17.5 +7.8 53 +18 +18 1016.7 969.3
03 16.09 С 2 10 км ясно +18.3 +3.6 38 +19 +21 1017.5 970.0
06 16.09 СВ 1 10 км ясно +25.2 +9.8 38 +26 +40 жарко 1016.7 970.5
09 16.09 В 1 10 км ясно +30.2 +8.6 26 +30 +44 жарко 1014.4 969.0
12 16.09 Ю 4 10 км ясно +31.2 +9.2 26 +31 +32 жарко 1014.0 968.8
15 16.09 З 1 н/о ясно +22.7 +11.0 48 +25 +25 комфорт 1016.0 969.4 +31.5
18 16.09 СВ 3 н/о ясно +20.0 +10.9 56 +22 +22 комфорт 1017.2 970.0
03 17.09 С 2 20 км ясно +18.5 +10.5 60 +19 +21 1019.2 971.9
09 17.09 В 2 20 км ясно +29.8 +7.0 24 +29 +41 жарко 1016.0 970.4

 

Местоположение метеостанции Ширабад (Сухрандарьинская область, Узбекистан): широта 37.67 долгота 67.02 высота над уровнем моря 410 м.

В архиве по умолчанию представлена погода в Ширабаде за последнюю неделю. Архивные данные за месяц целиком и за предыдущие месяцы, начиная с января 2011 года, Вы можете получить, выбрав интересующий диапазон дат из раскрывающегося списка и нажав кнопку "Ввод!".


*Определитесь, кто Вы:
робот инопланетянин человек

Внимание! Время в таблицах - всемирное. Для получения местного времени необходимо прибавить поправку, которая равна 5 ч.

Смотрите также архив погоды в соседних городах и на ближайших метеорологических станциях:

Погода в Термезе (Сухрандарьинская область, Узбекистан) (54 км)
Погода в Байсуне (Сухрандарьинская область, Узбекистан) (61 км)
Погода в Акрабате (Узбекистан) (67 км)
Погода в Шурчи (Сухрандарьинская область, Узбекистан) (78 км)
Погода в Дехканабаде (Сырдарьинская область, Узбекистан) (88 км)
Погода в Койтендаге (Дашогузский велаят, Туркменистан) (90 км)
Погода в Денау (Сухрандарьинская область, Узбекистан) (102 км)
Погода в Мазари-Шарифе (Афганистан) (108 км)
Погода в Минчукуре (Кашкадарьинская область, Узбекистан) (109 км)
Погода в Гузаре (Кашкадарьинская область, Узбекистан) (124 км)

Пояснения к столбцам:

Ветер - указаны скорость ветра в м/с - средняя за 10 мин, порывы в срок и между сроками (в фигурных скобках) и направление, откуда дует ветер: С - северный, СВ - северо-восточный, В - восточный, ЮВ - юго-восточный, Ю - южный, ЮЗ - юго-западный, З - западный, СЗ - северо-западный.
Видимость - горизонтальная дальность видимости в метрах или километрах. При видимости от 1 до 10 км при отсутствии осадков обычно наблюдается дымка, при ухудшении видимости до 1 км и менее - туман. В сухую погоду видимость может ухудшаться дымом, пылью или мглою.
Явления - указаны атмосферные явления, наблюдавшиеся в срок или в последний час перед сроком; фигурными скобками обозначены явления, наблюдавшиеся между сроками (за 1-3 часа до срока); квадратными скобками обозначены град или гололедные отложения с указанием их диаметра в мм.
Облачность - указаны через наклонную черту общая и нижняя облачность в баллах и высота нижней границы облаков в метрах; квадратными скобками обозначены формы облаков: Ci - перистые, Cs - перисто-слоистые, Cc - перисто-кучевые, Ac - высококучевые, As - высокослоистые, Sc - слоисто-кучевые, Ns - слоисто-дождевые, Cu - кучевые, Cb - кучево-дождевые. Подробнее классификацию облаков см. в Атласе облаков (PDF).
T - Температура воздуха - температура, измеренная на высоте 2 м над землей.
Td - Температура точки росы - температура, при понижении до которой содержащийся в воздухе водяной пар достигнет насыщения.
f - Относительная влажность воздуха - влажноcть воздуха, измеренная на высоте 2 м над землей.
Te - Эффективная температура - температура, которую ощущает одетый по сезону человек в тени. Характеристика душности погоды. При расчете учитывается влияние влажности воздуха и скорости ветра на теплоощущения человека.
Tes - Эффективная температура на солнце - температура, которую ощущает человек, с поправкой на солнечный нагрев. Характеристика знойности погоды. Зависит от высоты солнца над горизонтом, облачности и скорости ветра. Ночью, в пасмурную погоду, а также при ветре 12 м/с и более поправка равна нулю.
P - Атмосферное давление - приведенное к уровню моря атмосферное давление.
Po - Атмосферное давление - измеренное на уровне метеостанции атмосферное давление.
Tmin - Минимальная температура - минимум температуры воздуха на высоте 2 м над землей.
Tmax - Максимальная температура - максимум температуры воздуха на высоте 2 м над землей.
R - Количество осадков - Количество выпавших осадков за период времени, мм. При наведении курсора мыши на число - период времени, за который выпало указанное количество осадков.
R24 - Количество осадков - Количество выпавших осадков за 24 часа, мм.
S - Снежный покров - Высота снежного покрова, см. При наведении курсора мыши на число - состояние снежного покрова и степень покрытия местности в баллах.